Weather observations for the past three days for
Havasu City Airport
Imperial (Metric)
Date Time (mst) Wind (mph) Vis. (mi.) Weather Sky Cond. Temperature (ºF) Relative Humidity Wind Chill (°F) Heat Index (°F) Pressure Precipitation (in)
Air Dwpt 6 hour altimeter (in) sea level (mb) 1 hr 3 hr 6 hr
Max. Min.
06 11:15 Vrbl 7 10.00 Fair CLR 77 37.4 24% 77 29.99 0.0
06 10:55 SW 8 10.00 Fair CLR 75.2 37.4 25% 77 30 0.0
06 10:35 Vrbl 7 G 14 10.00 Fair CLR 75.2 37.4 25% 77 30 0.0
06 10:15 S 6 10.00 Fair CLR 75.2 37.4 25% 77 30 0.0
06 09:55 Vrbl 7 10.00 Fair CLR 73.4 37.4 27% 30 0.0
06 09:35 SW 8 10.00 Fair CLR 71.6 39.2 31% 30 0.0
06 09:15 Vrbl 6 10.00 Fair CLR 69.8 39.2 33% 30 0.0
06 08:55 SW 8 9.00 Fair CLR 69.8 41 35% 30 0.0
06 08:35 S 5 10.00 Fair CLR 68 37.4 33% 29.99 0.0
06 08:15 Calm 9.00 Fair CLR 66.2 39.2 37% 29.99 0.0
06 07:55 Calm 10.00 Fair CLR 64.4 39.2 40% 29.99 0.0
06 07:35 Calm 10.00 Fair CLR 64.4 39.2 40% 29.99 0.0
06 07:15 W 3 10.00 Fair CLR 64.4 39.2 40% 29.98 0.0
06 06:55 NW 6 10.00 Fair CLR 62.6 39.2 42% 29.97 0.0
06 06:35 N 5 10.00 Fair CLR 62.6 37.4 39% 29.96 0.0
06 06:15 Calm 10.00 Fair CLR 60.8 37.4 42% 29.95 0.0
06 05:55 N 5 10.00 Fair CLR 60.8 37.4 42% 29.95 0.0
06 05:35 N 5 10.00 Fair CLR 60.8 37.4 42% 29.94 0.0
06 05:15 N 6 10.00 Fair CLR 60.8 35.6 39% 29.93 0.0
06 04:55 N 3 10.00 Fair CLR 62.6 35.6 37% 29.93 0.0
06 04:35 Calm 10.00 Fair CLR 62.6 35.6 37% 29.93 0.0
06 04:15 N 5 10.00 Fair CLR 64.4 35.6 34% 29.93 0.0
06 03:55 N 5 10.00 Fair CLR 62.6 37.4 39% 29.92 0.0
06 03:35 Calm 10.00 Fair CLR 64.4 35.6 34% 29.92 0.0
06 03:15 Calm 10.00 Fair CLR 64.4 35.6 34% 29.92 0.0
06 02:55 Calm 10.00 Fair CLR 64.4 35.6 34% 29.91 0.0
06 02:35 E 3 10.00 Fair CLR 66.2 37.4 35% 29.92 0.0
06 02:15 Calm 10.00 Fair CLR 66.2 37.4 35% 29.91 0.0
06 01:55 S 5 10.00 Fair CLR 66.2 35.6 32% 29.91 0.0
06 01:35 Calm 10.00 Fair CLR 66.2 35.6 32% 29.91 0.0
06 01:15 E 7 10.00 Fair CLR 66.2 35.6 32% 29.9 0.0
06 00:55 Calm 10.00 Fair CLR 66.2 37.4 35% 29.9 0.0
06 00:35 SW 3 10.00 Fair CLR 68 37.4 33% 29.9 0.0
06 00:15 W 5 10.00 Fair CLR 68 37.4 33% 29.9 0.0
05 23:55 E 7 10.00 Fair CLR 68 37.4 33% 29.89 0.0
05 23:35 SE 7 10.00 Fair CLR 68 37.4 33% 29.89 0.0
05 23:15 S 5 10.00 Fair CLR 69.8 37.4 31% 29.88 0.0
05 22:55 Calm 10.00 Fair CLR 69.8 37.4 31% 29.88 0.0
05 22:35 S 6 10.00 Fair CLR 71.6 37.4 29% 29.88 0.0
05 22:15 S 6 10.00 Fair CLR 69.8 37.4 31% 29.88 0.0
05 21:55 SE 6 10.00 Fair CLR 71.6 37.4 29% 29.87 0.0
05 21:35 SE 7 10.00 Fair CLR 71.6 37.4 29% 29.86 0.0
05 21:15 SE 8 10.00 Fair CLR 71.6 37.4 29% 29.85 0.0
05 20:55 SE 12 10.00 Fair CLR 71.6 37.4 29% 29.84 0.0
05 20:35 SE 13 10.00 Fair CLR 73.4 37.4 27% 29.83 0.0
05 20:15 SE 13 10.00 Fair CLR 73.4 37.4 27% 29.83 0.0
05 19:55 S 12 10.00 Fair CLR 75.2 37.4 25% 77 29.81 0.0
05 19:35 SW 6 10.00 A Few Clouds FEW110 75.2 28.4 18% 76 29.81 0.0
05 19:15 SW 6 G 13 10.00 Mostly Cloudy BKN110 77 28.4 17% 77 29.8 0.0
05 18:55 S 10 10.00 Mostly Cloudy BKN100 77 28.4 17% 77 29.79 0.0
05 18:35 W 6 G 13 10.00 Overcast OVC100 77 30.2 18% 77 29.79 0.0
05 18:15 SW 10 G 17 10.00 Overcast OVC100 78.8 30.2 17% 78 29.78 0.0
05 17:55 SW 10 G 16 10.00 Overcast OVC100 78.8 30.2 17% 78 29.78 0.0
05 17:35 SW 10 10.00 Overcast OVC100 78.8 30.2 17% 78 29.78 0.0
05 17:15 S 12 10.00 Overcast OVC100 77 30.2 18% 77 29.77 0.0
05 16:55 SW 6 G 17 10.00 Mostly Cloudy BKN100 77 30.2 18% 77 29.77 0.0
05 16:35 S 10 10.00 Partly Cloudy SCT110 77 30.2 18% 77 29.77 0.0
05 16:15 S 9 G 18 10.00 Partly Cloudy SCT100 78.8 32 18% 78 29.77 0.0
05 15:55 S 8 G 16 10.00 Partly Cloudy SCT100 78.8 32 18% 78 29.77 0.0
05 15:35 SE 7 G 16 10.00 Partly Cloudy SCT095 77 32 19% 77 29.78 0.0
05 15:15 S 7 G 15 10.00 Partly Cloudy SCT095 77 32 19% 77 29.79 0.0
05 14:55 Vrbl 6 G 13 10.00 Partly Cloudy SCT100 77 32 19% 77 29.8 0.0
05 14:35 SW 12 10.00 Mostly Cloudy BKN100 77 33.8 21% 77 29.81 0.0
05 14:15 S 14 10.00 Fair CLR 78.8 33.8 20% 78 29.81 0.0
05 13:55 S 9 G 17 10.00 Fair CLR 77 33.8 21% 77 29.82 0.0
05 13:35 S 9 G 18 10.00 Fair CLR 75.2 33.8 22% 76 29.82 0.0
05 13:15 S 12 G 18 10.00 A Few Clouds FEW100 75.2 35.6 24% 76 29.82 0.0
05 12:35 SW 8 G 15 10.00 Fair CLR 75.2 33.8 22% 76 29.83 0.0
05 12:15 SW 10 10.00 Fair CLR 73.4 35.6 25% 29.84 0.0
05 11:55 Vrbl 7 10.00 Fair CLR 73.4 37.4 27% 29.85 0.0
05 11:35 SE 8 10.00 Fair CLR 73.4 37.4 27% 29.85 0.0
05 11:15 S 7 10.00 Fair CLR 71.6 37.4 29% 29.86 0.0
05 10:55 Vrbl 6 G 13 10.00 Fair CLR 69.8 39.2 33% 29.86 0.0
05 10:35 Calm 10.00 Fair CLR 69.8 39.2 33% 29.86 0.0
05 10:15 W 8 10.00 Fair CLR 69.8 41 35% 29.86 0.0
05 09:55 S 7 10.00 Fair CLR 68 41 38% 29.85 0.0
05 09:35 S 9 10.00 Fair CLR 68 41 38% 29.85 0.0
05 09:15 S 7 10.00 Fair CLR 68 41 38% 29.85 0.0
05 08:35 SW 6 G 12 10.00 Fair CLR 66.2 41 40% 29.85 0.0
05 08:15 SE 7 10.00 Fair CLR 66.2 41 40% 29.84 0.0
05 07:55 SE 8 G 15 10.00 Fair CLR 66.2 41 40% 29.84 0.0
05 07:35 SE 14 10.00 Fair CLR 64.4 42.8 46% 29.84 0.0
05 07:15 SE 9 G 18 10.00 Fair CLR 64.4 42.8 46% 29.84 0.0
05 06:55 SE 12 10.00 Fair CLR 62.6 42.8 49% 29.83 0.0
05 06:35 SE 13 10.00 Fair CLR 62.6 41 45% 29.83 0.0
05 06:15 SE 12 10.00 Fair CLR 62.6 41 45% 29.82 0.0
05 05:55 SE 8 10.00 Fair CLR 62.6 41 45% 29.82 0.0
05 05:35 SE 12 10.00 Fair CLR 62.6 41 45% 29.81 0.0
05 05:15 SE 9 10.00 Fair CLR 62.6 41 45% 29.81 0.0
05 04:55 SE 10 G 16 10.00 Fair CLR 62.6 39.2 42% 29.81 0.0
05 04:35 SE 8 10.00 Fair CLR 62.6 39.2 42% 29.81 0.0
05 04:15 SE 5 G 14 10.00 Fair CLR 62.6 39.2 42% 29.81 0.0
05 03:55 SE 9 10.00 Fair CLR 62.6 39.2 42% 29.81 0.0
05 03:35 SE 10 10.00 Fair CLR 64.4 41 43% 29.81 0.0
05 03:15 SE 13 10.00 Fair CLR 64.4 41 43% 29.81 0.0
05 02:55 SE 9 G 17 10.00 Fair CLR 64.4 41 43% 29.81 0.0
05 02:35 SE 14 G 20 10.00 Fair CLR 64.4 39.2 40% 29.81 0.0
05 02:15 SE 10 10.00 Fair CLR 66.2 39.2 37% 29.81 0.0
05 01:55 S 13 10.00 Fair CLR 66.2 39.2 37% 29.81 0.0
05 01:35 S 12 10.00 Fair CLR 66.2 39.2 37% 29.82 0.0
05 01:15 S 12 10.00 Fair CLR 68 39.2 35% 29.82 0.0
05 00:55 SE 13 10.00 Fair CLR 68 37.4 33% 29.82 0.0
05 00:35 SE 13 G 18 10.00 Fair CLR 69.8 37.4 31% 29.81 0.0
05 00:15 SE 14 10.00 Fair CLR 69.8 37.4 31% 29.81 0.0
04 23:55 SE 14 10.00 Fair CLR 69.8 37.4 31% 29.81 0.0
04 23:35 SE 14 10.00 Fair CLR 71.6 37.4 29% 29.81 0.0
04 23:15 SE 16 10.00 Fair CLR 71.6 37.4 29% 29.81 0.0
04 22:55 SE 13 10.00 Fair CLR 71.6 37.4 29% 29.81 0.0
04 22:35 SE 9 10.00 Fair CLR 71.6 37.4 29% 29.81 0.0
04 22:15 S 10 10.00 Fair CLR 71.6 37.4 29% 29.82 0.0
04 21:55 SE 12 10.00 Fair CLR 73.4 37.4 27% 29.82 0.0
04 21:35 SE 13 10.00 Fair CLR 73.4 35.6 25% 29.82 0.0
04 21:15 S 13 G 18 10.00 Fair CLR 73.4 35.6 25% 29.81 0.0
04 20:55 SE 12 G 18 10.00 Fair CLR 73.4 35.6 25% 29.8 0.0
04 20:35 SE 13 10.00 Fair CLR 73.4 35.6 25% 29.8 0.0
04 20:15 S 18 10.00 Fair CLR 73.4 35.6 25% 29.78 0.0
04 19:55 S 16 G 23 10.00 Fair CLR 73.4 33.8 23% 29.78 0.0
04 19:35 S 18 10.00 Fair CLR 75.2 33.8 22% 76 29.78 0.0
04 19:15 S 14 G 25 10.00 Fair CLR 75.2 32 21% 76 29.77 0.0
04 18:55 S 20 10.00 Fair CLR 77 30.2 18% 77 29.77 0.0
04 18:35 S 18 10.00 Fair CLR 77 30.2 18% 77 29.77 0.0
04 18:15 S 17 10.00 Fair CLR 77 30.2 18% 77 29.77 0.0
04 17:55 S 16 10.00 Fair CLR 78.8 32 18% 78 29.77 0.0
04 17:35 S 16 G 22 10.00 Fair CLR 78.8 32 18% 78 29.77 0.0
04 17:15 S 16 10.00 Fair CLR 78.8 33.8 20% 78 29.78 0.0
04 16:55 S 8 G 18 10.00 Fair CLR 78.8 35.6 21% 78 29.78 0.0
04 16:35 S 7 G 16 10.00 Fair CLR 78.8 33.8 20% 78 29.78 0.0
04 16:15 Vrbl 7 G 13 10.00 Fair CLR 78.8 35.6 21% 78 29.78 0.0
04 15:55 S 9 G 17 10.00 Fair CLR 78.8 35.6 21% 78 29.79 0.0
04 15:35 SE 13 10.00 Fair CLR 78.8 35.6 21% 78 29.79 0.0
04 15:15 SW 7 G 21 10.00 Fair CLR 78.8 35.6 21% 78 29.8 0.0
04 14:55 S 13 10.00 Fair CLR 78.8 35.6 21% 78 29.81 0.0
04 14:35 SW 13 G 24 10.00 Fair CLR 78.8 37.4 23% 78 29.82 0.0
04 14:15 SW 8 G 17 10.00 Fair CLR 77 37.4 24% 77 29.83 0.0
04 13:55 SW 14 10.00 Fair CLR 77 37.4 24% 77 29.83 0.0
04 13:35 S 8 G 17 10.00 Fair CLR 77 37.4 24% 77 29.84 0.0
04 13:15 S 12 G 17 10.00 Fair CLR 75.2 39.2 27% 77 29.84 0.0
04 12:55 S 7 G 18 10.00 Fair CLR 75.2 37.4 25% 77 29.84 0.0
04 12:35 SE 13 10.00 Fair CLR 75.2 37.4 25% 77 29.85 0.0
04 12:15 SE 10 G 18 10.00 Fair CLR 73.4 39.2 29% 29.85 0.0
04 11:55 S 9 G 17 10.00 Fair CLR 73.4 39.2 29% 29.86 0.0
04 11:35 SE 12 10.00 Fair CLR 73.4 41 31% 29.86 0.0
04 11:15 SE 12 G 17 10.00 Fair CLR 71.6 41 33% 29.87 0.0
04 10:55 SE 14 G 20 10.00 Fair CLR 71.6 41 33% 29.87 0.0
04 10:35 SE 15 G 23 10.00 Fair CLR 69.8 41 35% 29.86 0.0
04 10:15 SE 16 10.00 Fair CLR 69.8 41 35% 29.86 0.0
04 09:55 SE 20 10.00 Fair CLR 69.8 41 35% 29.85 0.0
04 09:35 SE 18 G 24 10.00 Fair CLR 69.8 41 35% 29.84 0.0
04 09:15 SE 20 G 28 10.00 Fair CLR 68 39.2 35% 29.84 0.0
04 08:55 SE 18 G 25 10.00 Fair CLR 68 39.2 35% 29.84 0.0
04 08:35 SE 18 10.00 Fair CLR 68 39.2 35% 29.84 0.0
04 08:15 SE 18 G 26 10.00 Fair CLR 68 39.2 35% 29.84 0.0
04 07:55 SE 21 G 28 10.00 Fair and Breezy CLR 68 39.2 35% 29.83 0.0
04 07:35 SE 20 G 25 10.00 Fair CLR 68 39.2 35% 29.82 0.0
04 07:15 SE 18 G 25 10.00 Fair CLR 68 39.2 35% 29.82 0.0
04 06:55 SE 15 G 22 10.00 Fair CLR 68 39.2 35% 29.82 0.0
04 06:35 SE 15 G 22 10.00 Fair CLR 68 39.2 35% 29.81 0.0
04 06:15 SE 16 G 23 10.00 Fair CLR 68 39.2 35% 29.81 0.0
04 05:55 SE 18 G 25 10.00 Fair CLR 68 41 38% 29.78 0.0
04 05:35 SE 15 G 23 10.00 Partly Cloudy SCT055 68 41 38% 29.78 0.0
04 04:55 SE 20 G 25 10.00 Partly Cloudy SCT060 69.8 41 35% 29.76 0.0
04 04:35 SE 17 G 24 9.00 Fair CLR 71.6 39.2 31% 29.75 0.0
04 04:15 SE 16 8.00 A Few Clouds FEW049 71.6 39.2 31% 29.75 0.0
04 03:55 SE 17 G 23 7.00 Mostly Cloudy BKN049 73.4 41 31% 29.75 0.0
04 03:35 SE 17 G 23 6.00 A Few Clouds with Haze FEW060 73.4 41 31% 29.75 0.0
04 03:15 SE 18 7.00 Mostly Cloudy BKN060 75.2 39.2 27% 77 29.76 0.0
04 02:55 S 15 8.00 Mostly Cloudy BKN060 75.2 41 29% 77 29.75 0.0
04 02:35 SE 17 G 24 7.00 Mostly Cloudy BKN055 75.2 42.8 31% 77 29.77 0.0
04 02:15 SE 17 G 24 6.00 Fair with Haze CLR 75.2 42.8 31% 77 29.76 0.0
04 01:55 SE 16 G 24 8.00 Fair CLR 77 41 28% 78 29.76 0.0
04 01:35 SE 16 G 23 10.00 Fair CLR 77 41 28% 78 29.75 0.0
04 01:15 SE 16 G 22 10.00 Fair CLR 78.8 41 26% 78 29.74 0.0
04 00:55 SE 17 G 23 10.00 Fair CLR 78.8 39.2 24% 78 29.73 0.0
04 00:35 SE 15 10.00 Fair CLR 80.6 39.2 23% 79 29.72 0.0
04 00:15 S 13 G 18 10.00 Fair CLR 80.6 37.4 21% 79 29.72 0.0
03 23:55 S 15 10.00 Fair CLR 80.6 37.4 21% 79 29.72 0.0
03 23:35 S 17 G 25 10.00 Fair CLR 82.4 35.6 19% 80 29.72 0.0
03 23:15 SE 13 G 18 10.00 Fair CLR 82.4 37.4 20% 80 29.71 0.0
03 22:55 SE 13 G 22 10.00 Fair CLR 82.4 37.4 20% 80 29.71 0.0
03 22:35 S 17 10.00 Fair CLR 84.2 39.2 20% 81 29.71 0.0
03 22:15 S 13 G 23 10.00 Fair CLR 84.2 39.2 20% 81 29.71 0.0
03 21:55 S 16 10.00 Fair CLR 84.2 37.4 19% 81 29.7 0.0
03 21:35 S 15 G 22 10.00 Fair CLR 86 37.4 18% 83 29.7 0.0
03 21:15 S 18 G 28 10.00 Fair CLR 86 33.8 15% 83 29.69 0.0
03 20:55 S 23 10.00 Fair and Breezy CLR 87.8 33.8 15% 84 29.68 0.0
03 20:35 S 16 G 24 10.00 Fair CLR 87.8 33.8 15% 84 29.67 0.0
03 20:15 S 16 G 22 10.00 Fair CLR 87.8 32 13% 84 29.66 0.0
03 19:55 S 14 10.00 Fair CLR 87.8 35.6 16% 84 29.65 0.0
03 19:35 S 15 10.00 Fair CLR 89.6 35.6 15% 86 29.65 0.0
03 19:15 S 17 10.00 Fair CLR 89.6 35.6 15% 86 29.64 0.0
03 18:55 S 18 10.00 Fair CLR 89.6 39.2 17% 86 29.64 0.0
03 18:35 S 18 10.00 Fair CLR 91.4 37.4 15% 87 29.64 0.0
03 18:15 S 22 10.00 Fair and Breezy CLR 93.2 33.8 12% 89 29.64 0.0
03 17:55 SW 18 G 24 10.00 Fair CLR 93.2 33.8 12% 89 29.64 0.0
03 17:35 SW 18 10.00 Fair CLR 93.2 35.6 13% 89 29.64 0.0
03 17:15 S 24 G 33 10.00 Fair and Breezy CLR 95 33.8 11% 90 29.64 0.0
03 16:55 S 21 G 28 10.00 Fair and Breezy CLR 95 33.8 11% 90 29.65 0.0
03 16:35 S 17 G 31 10.00 Fair CLR 95 30.2 10% 90 29.65 0.0
03 16:15 S 20 G 28 10.00 Fair CLR 95 30.2 10% 90 29.65 0.0
03 15:55 S 21 G 28 10.00 Fair and Breezy CLR 95 32 11% 90 29.65 0.0
03 15:35 SW 16 G 28 10.00 Fair CLR 96.8 28.4 9% 92 29.66 0.0
03 15:15 S 23 G 31 10.00 Fair and Breezy CLR 96.8 28.4 9% 92 29.67 0.0
03 14:55 S 22 G 33 10.00 Fair and Breezy CLR 96.8 28.4 9% 92 29.68 0.0
03 14:35 S 21 G 31 10.00 Fair and Breezy CLR 96.8 26.6 8% 92 29.68 0.0
03 14:15 S 22 G 30 10.00 Fair and Breezy CLR 95 28.4 9% 90 29.69 0.0
03 13:55 S 16 G 29 10.00 Fair CLR 96.8 28.4 9% 92 29.7 0.0
03 13:35 S 17 10.00 Fair CLR 96.8 28.4 9% 92 29.71 0.0
03 13:15 SE 17 G 24 10.00 Fair CLR 95 28.4 9% 90 29.72 0.0
03 12:55 S 14 G 24 10.00 Fair CLR 95 30.2 10% 90 29.73 0.0
03 12:35 S 15 G 22 10.00 Fair CLR 95 30.2 10% 90 29.74 0.0
03 12:15 S 18 G 24 10.00 Fair CLR 95 32 11% 90 29.74 0.0
03 11:55 SE 17 G 29 10.00 Fair CLR 93.2 35.6 13% 89 29.75 0.0
03 11:35 S 16 G 25 10.00 Fair CLR 93.2 35.6 13% 89 29.76 0.0
Date Time (mst) Wind (mph) Vis. (mi.) Weather Sky Cond. Air Dwpt Max. Min. Relative Humidity Wind Chill (°F) Heat Index (°F) altimeter (in) sea level (mb) 1 hr 3 hr 6 hr
6 hour
Temperature (ºF) Pressure Precipitation (in)